GFSFLT1_sfc_30mbdewp_132.txt.gz
Dewpoint
55 53 52 50 51 54 56 59 60 64 69 69 69 70 70 70 70 69 68 68 67 68 66 69 70 70 69 71 70 70 70 70 71
55 54 53 49 53 56 56 59 59 64 69 69 69 68 70 70 70 70 67 69 70 69 66 70 65 67 70 70 71 71 70 70 70
54 58 58 51 51 54 56 59 60 62 68 69 69 68 69 69 69 70 70 70 67 69 71 68 72 70 70 70 70 71 71 71 70
56 59 60 55 53 52 56 56 60 61 65 68 68 68 68 67 68 69 70 70 70 69 70 68 70 70 70 71 71 71 71 72 71
62 62 61 63 63 57 55 57 59 60 63 66 67 67 67 67 68 67 68 70 70 71 70 70 70 70 71 71 71 70 71 71 71
61 61 61 63 63 63 58 59 63 61 64 64 66 67 66 66 66 67 67 69 69 70 70 69 70 70 70 70 70 70 70 70 71
60 60 60 62 63 65 60 61 64 64 67 66 65 66 66 66 67 66 66 66 68 69 70 70 70 70 70 70 71 71 70 70 70
61 62 63 63 64 63 66 63 63 65 67 65 69 67 66 68 68 68 68 69 69 69 70 70 71 71 71 70 70 69 70 69 69
60 60 61 62 66 59 66 67 68 69 67 68 70 70 70 71 70 70 70 70 69 70 70 71 71 71 71 70 69 67 67 68 69
58 59 59 60 62 65 66 67 68 68 69 68 69 69 69 69 70 69 70 71 72 72 71 71 72 72 72 72 72 67 67 67 68
58 58 59 60 61 62 64 67 66 67 67 68 68 69 69 69 69 70 71 71 71 71 71 72 71 71 71 71 71 67 66 65 67
58 59 59 60 62 62 63 64 66 65 66 68 68 68 69 70 70 69 69 69 70 70 70 71 70 71 71 70 70 63 61 64 66
57 59 59 60 61 62 62 63 64 67 67 67 67 69 70 69 69 68 67 67 67 69 69 68 67 61 59 61 60 57 59 63 67
58 58 60 61 61 61 60 62 66 67 67 66 68 69 68 68 68 68 68 68 67 66 64 61 58 57 57 56 56 56 58 59 63
57 58 59 60 60 61 61 61 61 61 61 63 65 66 65 65 66 66 66 65 64 63 61 59 57 56 56 56 55 54 55 56 59
56 56 57 58 59 60 60 61 60 59 59 62 62 62 62 62 63 63 64 64 63 62 61 60 59 58 57 56 55 55 55 52 54
55 56 56 57 58 58 59 60 60 59 59 60 60 59 58 57 58 59 59 60 59 60 60 60 59 58 55 54 55 55 55 55 56
54 55 56 57 57 57 57 59 59 59 60 59 58 57 57 56 55 54 52 51 52 55 52 53 58 57 56 55 52 48 47 52 53
54 55 55 56 56 56 55 56 56 58 58 58 58 57 56 56 56 56 55 54 52 48 48 48 50 50 52 49 49 46 45 48 50
54 53 54 53 54 53 54 53 54 52 51 53 54 53 52 52 52 53 54 54 54 53 50 47 47 48 47 49 47 39 37 37 37

GFSFLT1_sfc_30mbdewp_135.txt.gz
Dewpoint
57 57 54 54 53 57 58 59 65 67 68 67 68 68 69 70 70 69 67 69 68 68 68 70 70 69 67 71 70 71 71 70 70
59 60 56 53 54 56 59 60 64 66 69 68 69 69 70 70 70 69 69 69 69 71 69 68 66 64 63 63 71 70 70 69 69
59 62 62 56 54 55 59 61 65 67 69 69 69 69 71 69 70 70 70 70 67 69 70 69 64 61 67 70 70 70 70 69 70
60 61 62 62 61 60 59 60 65 67 69 69 69 68 70 70 69 68 69 70 68 66 69 66 65 69 69 70 70 71 70 70 70
60 60 62 63 63 64 63 59 66 67 69 69 69 69 69 69 70 69 69 69 69 67 70 70 69 70 71 70 70 71 71 70 70
62 62 62 63 63 63 65 66 62 67 68 69 69 69 69 68 68 68 68 69 69 70 70 70 69 70 70 69 70 70 70 71 71
60 61 63 63 62 61 61 65 67 65 67 68 68 68 68 67 68 67 67 69 70 70 71 69 69 70 70 69 70 71 70 71 70
61 62 63 62 62 61 61 61 63 68 66 67 67 68 66 67 66 67 68 67 69 69 70 70 69 69 70 72 71 71 70 70 70
58 59 61 63 61 61 59 59 61 68 67 65 64 61 68 67 68 68 67 68 68 68 68 70 71 71 71 70 71 68 67 67 68
57 58 60 61 63 60 59 62 67 67 67 69 67 68 70 69 68 69 69 70 70 69 69 70 70 70 69 70 70 68 68 68 67
58 59 59 60 61 63 64 66 67 67 67 68 69 68 69 69 68 69 69 69 69 69 69 69 70 70 70 70 66 65 64 64 67
58 59 60 61 62 62 63 63 64 66 64 67 66 67 67 69 70 69 69 68 69 69 69 69 67 64 65 66 60 60 62 66 67
58 59 60 61 62 62 61 62 63 65 64 64 66 68 68 69 69 68 68 68 68 67 65 63 61 60 59 59 59 58 61 64 66
58 59 61 61 61 60 61 62 65 64 64 66 68 69 67 68 69 68 67 66 65 63 61 60 58 57 56 56 56 56 58 61 63
58 59 60 61 61 61 61 61 62 62 62 64 64 65 65 65 65 66 65 64 63 61 60 58 57 56 56 55 54 53 55 58 60
58 58 59 60 60 60 61 60 60 60 61 62 62 62 62 63 63 64 64 63 62 60 60 59 58 57 56 55 55 55 53 53 55
57 57 58 59 59 59 60 60 60 59 60 60 60 59 58 58 58 57 57 57 57 58 59 59 59 56 55 55 55 53 54 54 54
57 56 57 58 58 59 59 59 60 59 59 58 57 57 56 56 55 53 52 50 51 54 50 53 57 56 55 52 51 49 48 51 52
55 56 57 57 57 57 57 58 58 59 60 59 57 56 56 56 54 54 53 52 50 46 47 47 50 52 52 49 50 47 47 48 50
55 54 55 56 55 55 56 53 52 55 58 58 57 56 56 55 56 57 55 53 52 50 49 48 47 49 50 50 48 40 37 37 38

GFSFLT1_sfc_30mbdewp_138.txt.gz
Dewpoint
55 55 55 55 55 60 61 64 65 66 67 66 69 68 68 68 66 64 65 66 67 68 68 69 71 71 70 70 71 70 71 70 69
58 58 61 59 56 58 61 63 65 66 68 67 68 68 68 68 68 67 66 68 70 68 69 69 69 67 64 63 70 70 70 69 69
57 59 62 62 61 58 60 62 65 65 68 67 67 68 69 69 69 69 69 69 69 69 69 68 66 64 65 63 69 69 70 69 70
59 60 62 62 63 63 60 60 64 66 67 67 67 68 69 69 69 69 70 70 68 68 69 69 65 63 69 69 70 70 70 69 70
56 62 63 63 64 65 63 60 62 65 67 67 68 68 70 69 69 69 68 69 69 68 69 68 66 66 69 69 70 71 71 70 70
57 62 62 63 62 61 63 66 65 65 67 68 68 68 69 69 69 68 67 68 69 68 67 70 68 68 69 70 70 70 70 70 70
61 62 62 64 61 61 61 63 65 68 68 69 68 68 68 68 69 68 68 69 69 69 69 69 70 70 70 70 69 69 69 69 70
60 60 61 63 62 61 60 60 61 65 68 69 69 69 69 68 68 68 68 68 69 69 69 70 69 69 70 70 70 70 70 70 70
58 58 60 62 63 63 62 62 65 65 64 68 68 68 68 68 67 68 67 67 68 69 70 70 70 69 69 69 71 71 69 67 67
57 58 59 60 61 63 63 63 64 65 67 65 66 66 66 68 68 67 67 68 68 68 68 70 69 69 69 69 70 67 68 68 67
58 59 59 59 61 61 63 64 65 66 66 66 67 66 67 69 69 68 69 68 68 68 69 68 69 69 69 68 64 65 65 66 67
58 59 60 60 62 62 62 62 63 65 65 67 68 66 66 62 68 68 68 68 68 69 69 66 64 64 66 64 61 61 63 66 67
58 59 60 61 62 61 61 61 62 64 64 65 67 68 67 69 69 68 68 68 66 65 64 62 61 59 59 59 59 57 60 65 67
59 60 61 61 60 61 61 62 63 63 64 65 67 66 68 68 68 67 66 65 64 62 61 60 58 57 56 55 56 56 58 60 63
58 60 60 61 60 61 61 62 63 63 62 63 65 65 65 65 65 65 64 63 61 60 59 58 57 56 55 55 54 54 56 58 60
59 59 59 60 60 60 60 61 61 61 61 62 62 63 63 63 63 63 62 61 60 59 59 58 57 56 55 55 55 56 54 54 56
57 59 59 59 59 59 59 59 60 60 61 60 60 59 59 57 57 56 56 57 58 59 58 58 57 55 55 55 52 53 53 53 53
56 57 58 58 58 59 59 59 59 59 59 58 58 57 57 55 54 53 52 50 52 53 51 54 56 55 53 52 52 50 48 51 52
56 56 58 58 58 59 58 58 59 59 59 58 57 56 56 55 54 53 52 50 49 47 47 50 53 53 52 50 50 47 48 49 49
56 56 56 56 56 56 56 57 57 58 59 58 57 56 56 56 55 53 52 51 51 50 48 47 48 50 50 50 48 41 40 39 40

GFSFLT1_sfc_30mbdewp_141.txt.gz
Dewpoint
57 57 58 58 58 59 60 62 64 65 66 66 67 67 66 67 67 64 63 65 67 67 67 68 70 70 70 70 70 69 70 70 69
58 59 58 57 57 59 61 62 64 65 66 66 67 67 67 67 66 65 62 65 67 68 68 69 69 70 69 68 70 70 70 69 69
57 61 61 62 61 57 61 61 64 65 66 66 67 67 67 68 67 66 66 67 68 69 68 69 69 67 66 64 64 69 69 70 69
58 62 62 62 63 64 60 61 63 64 66 66 66 68 68 67 68 68 67 68 68 69 69 68 67 66 65 66 66 70 69 69 69
56 62 62 63 63 63 64 61 62 64 65 66 66 67 67 68 68 69 68 68 68 69 68 69 68 66 66 68 69 70 70 69 70
54 60 62 63 62 62 64 64 62 65 65 66 66 67 67 68 68 68 68 68 69 68 68 68 68 66 65 69 70 70 70 70 70
61 62 63 62 61 61 63 63 66 66 66 67 67 67 68 68 68 68 68 68 69 69 67 68 69 69 68 69 70 69 69 69 69
60 60 61 62 60 60 61 61 64 66 68 68 68 68 67 68 69 69 68 68 68 68 69 68 68 69 69 70 70 69 69 69 69
58 59 60 62 62 61 61 63 65 64 65 67 68 68 68 68 68 68 68 68 68 68 68 69 69 68 69 68 70 70 69 70 68
57 57 59 61 61 63 63 63 65 64 65 66 65 66 66 67 67 67 68 68 68 68 68 69 69 69 69 69 69 68 68 68 67
57 58 59 60 61 62 63 65 65 66 66 64 64 65 65 65 66 67 68 68 67 67 68 68 69 69 69 67 63 63 65 66 67
58 59 59 60 61 62 62 62 63 65 65 66 64 64 64 64 66 65 67 68 68 68 68 66 65 65 65 63 61 61 62 64 67
59 59 60 61 62 61 60 61 62 63 65 66 67 66 65 66 66 67 67 67 66 65 64 62 61 60 59 59 59 58 61 64 66
58 60 61 60 60 61 61 62 63 64 64 65 66 67 67 67 67 66 65 64 63 62 61 60 59 57 57 56 57 58 60 62 64
58 60 60 60 60 60 60 62 63 63 63 64 65 65 66 65 66 66 64 63 61 61 59 58 56 56 55 55 55 56 58 60 61
58 59 59 60 59 59 60 60 61 61 62 63 64 63 63 63 63 62 62 61 60 60 59 57 56 56 55 55 55 55 54 56 57
58 59 59 59 58 58 59 59 60 60 60 61 62 61 60 59 59 58 58 59 60 59 59 58 57 56 55 54 53 52 52 53 53
57 58 58 58 57 58 58 59 59 59 59 60 59 58 57 56 56 56 54 52 53 56 54 56 56 56 54 53 52 50 49 51 51
56 58 58 57 58 57 57 59 59 59 58 58 57 56 55 55 54 53 51 51 50 47 48 51 54 54 52 50 50 48 48 48 48
56 57 57 56 56 57 57 57 58 59 58 58 57 56 55 54 53 52 52 51 51 51 48 48 48 49 49 49 46 44 43 42 43